Location: Pedimozza
(42.0500°N, 9.3500°E)
Time: 18:53:23
(UTC+00:00)

Resurs 1-4 Rocket - Pass Details

Date: 19 August 2019
Orbit: 800 x 814 km, 98.6° (Epoch: 18 October)

Event Time Altitude Azimuth Distance (km) Brightness Sun altitude
Rises 23:50:02 0° 31° (NNE) 3,319 6.1 -35.1°
Reaches altitude 10° 23:53:15 10° 51° (NE) 2,382 5.0 -35.0°
Enters shadow 23:55:15 15° 73° (ENE) 2,019 4.4 -34.9°
